This demonstration page uses our WeatherBlox Daily Observations layout. Learn more.

Left ArrowRight Arrow

Hourly Observations for July 25, 2018

Temp ( °F °C ) Dew Point ( °F °C ) Humidity (%) Winds ( mph kmh ) Pressure ( in mb ) Visibility ( mi km ) Precip ( " mm )
12:15 am 00:15 Clear 69 20.3 64 17.7 85 85 SE 6 9 30.09 1019 10 16 N/A
12:35 am 00:35 Clear 68 20.1 64 17.7 86 86 ESE 5 7 30.09 1019 10 16 N/A
12:55 am 00:55 Clear 68 19.8 64 17.6 87 87 SE 6 9 30.06 1018 10 16 N/A
1:15 am 01:15 Clear 68 20 63 17.3 85 85 SE 6 9 30.06 1018 10 16 N/A
1:35 am 01:35 Clear 67 19.7 63 17 85 85 SE 3 6 30.06 1018 10 16 N/A
1:55 am 01:55 Clear 67 19.3 62 16.5 84 84 SE 5 7 30.06 1018 10 16 N/A
2:15 am 02:15 Clear 66 19.1 61 16.1 83 83 SE 5 7 30.06 1018 10 16 N/A
2:35 am 02:35 Clear 66 18.8 61 16 84 84 ESE 6 9 30.06 1018 10 16 N/A
2:55 am 02:55 Clear 66 19.1 61 16 82 82 SSE 6 9 30.03 1017 10 16 N/A
3:15 am 03:15 Clear 66 19.1 60 15.8 81 81 SSE 7 11 30.03 1017 10 16 N/A
3:35 am 03:35 Clear 66 19 60 15.8 82 82 SE 7 11 30.03 1017 10 16 N/A
3:55 am 03:55 Clear 66 19.1 60 15.5 80 80 SSE 6 9 30.03 1017 10 16 N/A
4:15 am 04:15 Clear 67 19.2 60 15.5 79 79 SSE 6 9 30.03 1017 10 16 N/A
4:35 am 04:35 Clear 67 19.2 60 15.5 79 79 SSE 3 6 30.03 1017 10 16 N/A
4:55 am 04:55 Clear 67 19.3 60 15.3 78 78 ESE 3 6 30.03 1017 10 16 N/A
5:15 am 05:15 Clear 67 19.3 59 15 76 76 ESE 5 7 30.03 1017 10 16 N/A
5:35 am 05:35 Clear 65 18.3 59 15.2 82 82 E 6 9 30.03 1017 10 16 N/A
5:55 am 05:55 Clear 66 18.8 59 15 79 79 ESE 5 7 30.03 1017 10 16 N/A
6:15 am 06:15 Clear 67 19.3 59 15 76 76 ESE 3 6 30.03 1017 10 16 N/A
6:35 am 06:35 Partly Cloudy 65 18.3 60 15.7 85 85 NNE 6 9 30.09 1019 10 16 N/A
6:55 am 06:55 Cloudy 68 20.2 59 15.1 73 73 ENE 3 6 30.06 1018 10 16 N/A
7:15 am 07:15 Mostly Cloudy 69 20.5 60 15.3 72 72 E 5 7 30.06 1018 10 16 N/A
7:35 am 07:35 Partly Cloudy 68 20 60 15.7 76 76 E 6 9 30.06 1018 10 16 N/A
7:55 am 07:55 Partly Cloudy with Nearby Thunderstorms 69 20.6 60 15.7 74 74 E 7 11 30.03 1017 10 16 N/A
8:15 am 08:15 Partly Cloudy 70 21 60 15.6 71 71 ESE 6 9 30.00 1016 10 16 N/A
8:35 am 08:35 Sunny 69 20.6 61 16 75 75 E 5 7 30.06 1018 10 16 N/A
8:55 am 08:55 Partly Cloudy 69 20.3 62 16.6 79 79 E 3 6 30.06 1018 10 16 N/A
9:15 am 09:15 Partly Cloudy with Nearby Thunderstorms 69 20.5 61 16.1 76 76 ESE 6 9 30.06 1018 10 16 N/A
9:35 am 09:35 Partly Cloudy with Nearby Thunderstorms 69 20.5 62 16.4 77 77 SSE 5 7 30.06 1018 10 16 N/A
9:55 am 09:55 Mostly Cloudy 69 20.6 61 16.3 76 76 NNW 16 26 30.12 1020 7 11 0.05 1.27
10:15 am 10:15 Cloudy with Thunderstorms 66 18.9 63 17 89 89 NE 9 15 30.09 1019 3 5 0.18 4.57
10:35 am 10:35 Mostly Cloudy 66 18.8 64 17.5 92 92 NE 13 20 30.06 1018 10 16 0.21 5.33
10:55 am 10:55 Partly Cloudy with Nearby Thunderstorms 67 19.2 64 17.9 92 92 NE 9 15 30.09 1019 10 16 0.21 5.33
11:15 am 11:15 Mostly Cloudy with Thunderstorms 67 19.5 64 17.8 90 90 N N/A 30.12 1020 10 16 N/A
11:35 am 11:35 Cloudy with Thunderstorms 67 19.2 64 18 93 93 S 13 20 30.09 1019 5 8 0.03 0.76
11:55 am 11:55 Mostly Cloudy with Thunderstorms 66 19 64 18 94 94 SSE 16 26 30.00 1016 10 16 0.05 1.27
12:15 pm 12:15 Partly Cloudy 69 20.4 66 18.7 90 90 SE 13 20 29.94 1014 10 16 N/A
12:35 pm 12:35 Sunny with Nearby Thunderstorms 73 22.6 67 19.3 82 82 ESE 6 9 29.94 1014 10 16 N/A
12:55 pm 12:55 Sunny 76 24.2 66 19.1 73 73 SSE 10 17 29.91 1013 10 16 N/A
1:15 pm 13:15 Sunny 75 23.8 66 19 75 75 SE 9 15 29.97 1015 10 16 N/A
1:35 pm 13:35 Sunny 76 24.7 67 19.3 72 72 S 10 17 29.94 1014 10 16 N/A
1:55 pm 13:55 Sunny 78 25.5 66 18.8 67 67 S 6 9 29.94 1014 10 16 N/A
2:15 pm 14:15 Sunny 79 25.9 66 18.9 65 65 S 12 19 29.94 1014 10 16 N/A
2:35 pm 14:35 Sunny 78 25.4 66 18.8 67 67 SW 8 13 29.97 1015 10 16 N/A
2:55 pm 14:55 Sunny 80 26.5 67 19.2 64 64 SW 6 9 29.97 1015 10 16 N/A
3:15 pm 15:15 Sunny 78 25.3 65 18.5 66 66 SSW 3 6 29.97 1015 10 16 N/A
3:35 pm 15:35 Partly Cloudy 80 26.4 66 19 64 64 SW 6 9 29.94 1014 10 16 N/A
3:55 pm 15:55 Mostly Cloudy with Nearby Thunderstorms 81 27.1 68 20 65 65 WNW 6 9 29.94 1014 10 16 N/A
4:15 pm 16:15 Mostly Cloudy 81 27.4 68 19.8 63 63 WSW 5 7 29.94 1014 10 16 N/A
4:35 pm 16:35 Cloudy 82 28 68 19.8 61 61 W 6 9 29.91 1013 10 16 N/A
4:55 pm 16:55 Mostly Cloudy 82 27.9 68 20.1 63 63 NW 3 6 29.91 1013 10 16 N/A
5:15 pm 17:15 Cloudy 81 27.4 67 19.6 62 62 N N/A 29.94 1014 10 16 N/A
5:35 pm 17:35 Cloudy 81 27.2 66 19.1 61 61 N N/A 29.94 1014 10 16 N/A
5:55 pm 17:55 Mostly Cloudy 81 27.2 67 19.3 62 62 N N/A 29.91 1013 10 16 N/A
6:15 pm 18:15 Partly Cloudy 81 27.1 68 19.8 64 64 NNE 3 6 29.91 1013 10 16 N/A
6:35 pm 18:35 Partly Cloudy 80 26.9 68 20.1 66 66 N N/A 29.91 1013 10 16 N/A
6:55 pm 18:55 Partly Cloudy 81 27.2 69 20.3 66 66 NE 3 6 29.91 1013 10 16 N/A
7:15 pm 19:15 Partly Cloudy 82 27.5 69 20.6 66 66 E 3 6 29.94 1014 10 16 N/A
7:35 pm 19:35 Mostly Cloudy 80 26.7 69 20.5 69 69 ENE 6 9 29.94 1014 10 16 N/A
7:55 pm 19:55 Mostly Cloudy 78 25.7 68 20 71 71 E 7 11 29.97 1015 10 16 N/A
8:15 pm 20:15 Partly Cloudy 77 25.2 69 20.5 75 75 E 9 15 29.94 1014 10 16 N/A
8:35 pm 20:35 Sunny 77 25 69 20.6 77 77 E 6 9 29.97 1015 10 16 N/A
8:55 pm 20:55 Sunny 75 24.1 69 20.7 81 81 ENE 5 7 30.00 1016 10 16 N/A
9:15 pm 21:15 Clear 75 24.1 69 20.6 81 81 N N/A 30.00 1016 10 16 N/A
9:35 pm 21:35 Clear 74 23.5 69 20.6 84 84 N N/A 30.00 1016 7 11 N/A
9:55 pm 21:55 Clear 73 23 69 20.6 86 86 N N/A 30.00 1016 10 16 N/A
10:15 pm 22:15 Partly Cloudy 72 22.3 69 20.8 91 91 N 3 6 30.00 1016 10 16 N/A
10:35 pm 22:35 Partly Cloudy 73 22.8 70 21 90 90 NNE 6 9 30.03 1017 10 16 N/A
10:55 pm 22:55 Mostly Cloudy 74 23.5 68 20 81 81 NNE 9 15 30.03 1017 10 16 N/A
11:15 pm 23:15 Partly Cloudy 73 22.7 65 18.5 77 77 NE 10 17 30.03 1017 10 16 N/A
11:35 pm 23:35 Partly Cloudy 72 22.3 65 18.1 77 77 NE 9 15 30.03 1017 10 16 N/A
11:55 pm 23:55 Clear 72 22 65 18.1 79 79 NE 8 13 30.03 1017 10 16 N/A

Powered by AerisWeather